Location: Fort Worth, Tx
(32.7431°N, 97.3695°W)
Time: 17:02:32
(UTC-04:00)

A-11 Canister half - Pass Details

Date: 29 February 2024
Orbit: 1525 x 1683 km, 47.3° (Epoch: 21 April)

Event Time Altitude Azimuth Distance (km) Brightness Sun altitude
Rises 19:39:17 0° 219° (SW) 4,846 12.4 -3.5°
Reaches altitude 10° 19:42:27 10° 217° (SW) 3,841 11.8 -4.2°
Maximum altitude 19:52:06 67° 137° (SE) 1,689 9.1 -6.2°
Drops below altitude 10° 20:01:26 10° 57° (ENE) 3,733 10.5 -8.1°
Enters shadow 20:03:32 - 55° (NE) 4,398 10.9 -8.6°
